Location: Zagreb
(45.8000°N, 16.0000°E)
Time: 07:36:38
(UTC+02:00)

Courier 1B - Pass Details

Date: 17 August 2020
Orbit: 962 x 1209 km, 28.3° (Epoch: 27 September)

Event Time Altitude Azimuth Distance (km) Brightness Sun altitude
Rises 16:34:10 0° 218° (SW) 4,101 11.5 34.5°
Reaches altitude 10° 16:38:26 10° 198° (SSW) 3,127 10.7 33.8°
Maximum altitude 16:42:37 15° 165° (SSE) 2,711 10.0 33.1°
Drops below altitude 10° 16:46:44 10° 132° (SE) 3,074 9.9 32.4°
Sets 16:50:51 0° 111° (ESE) 3,994 10.3 31.7°
